Temp
-8 -7 -6 -6 -6 -6 -6 -6 -6 -5 -5 -5 -6 -6 -6 -6 -7 -7 -7 -7 -8 -7 -7 -6 -6 -6 -6 -6 -6 -6 -6 -6 -6
-9 -7 -6 -6 -6 -6 -6 -6 -6 -6 -6 -6 -6 -6 -6 -6 -7 -7 -8 -8 -8 -7 -7 -7 -7 -7 -7 -7 -7 -6 -6 -6 -6
-8 -7 -6 -6 -6 -6 -6 -6 -6 -6 -6 -6 -6 -6 -7 -7 -7 -8 -7 -8 -6 -7 -7 -7 -7 -7 -7 -7 -7 -7 -7 -7 -6
-8 -8 -6 -6 -6 -6 -6 -6 -6 -6 -6 -6 -6 -7 -7 -7 -7 -7 -8 -8 -7 -7 -7 -7 -7 -7 -7 -7 -7 -7 -7 -7 -7
-8 -8 -6 -6 -6 -6 -6 -7 -7 -7 -7 -7 -7 -8 -8 -8 -7 -7 -7 -7 -7 -8 -8 -8 -8 -8 -8 -8 -7 -7 -7 -7 -7
-8 -8 -8 -8 -7 -7 -7 -7 -7 -7 -7 -7 -7 -7 -7 -7 -8 -7 -7 -7 -7 -7 -7 -7 -7 -7 -7 -7 -7 -7 -7 -7 -8
-8 -9 -8 -8 -7 -7 -7 -7 -7 -7 -7 -7 -7 -7 -8 -7 -7 -7 -7 -7 -7 -7 -7 -7 -7 -7 -7 -7 -7 -7 -7 -7 -7
-8 -8 -8 -8 -8 -7 -7 -7 -7 -7 -8 -8 -8 -8 -8 -8 -7 -7 -7 -7 -7 -7 -7 -7 -7 -7 -7 -7 -7 -7 -6 -6 -6
-8 -8 -8 -8 -8 -8 -7 -7 -8 -8 -8 -9 -9 -9 -9 -9 -9 -8 -8 -7 -7 -7 -7 -7 -7 -7 -7 -7 -6 -6 -6 -6 -6
-9 -8 -8 -8 -8 -8 -8 -8 -8 -9 -9 -8 -9 -9 -9 -10 -10 -9 -9 -8 -8 -7 -7 -7 -7 -7 -7 -7 -7 -6 -6 -6 -6
-8 -8 -8 -8 -8 -8 -8 -8 -8 -9 -9 -9 -9 -8 -8 -8 -8 -8 -9 -9 -8 -8 -7 -7 -7 -7 -7 -7 -7 -7 -6 -6 -6
-9 -9 -8 -8 -8 -8 -8 -8 -8 -8 -8 -8 -8 -8 -8 -8 -8 -8 -7 -8 -8 -8 -8 -7 -7 -7 -7 -7 -7 -7 -7 -7 -6
-9 -9 -9 -8 -8 -8 -8 -8 -8 -8 -9 -9 -8 -8 -8 -9 -9 -9 -9 -8 -9 -9 -9 -8 -8 -7 -8 -8 -7 -7 -7 -7 -7
-9 -9 -9 -8 -8 -8 -8 -9 -9 -8 -8 -8 -9 -9 -9 -8 -8 -8 -8 -8 -9 -9 -9 -9 -8 -8 -8 -8 -8 -7 -7 -7 -7
-9 -9 -9 -9 -9 -8 -8 -8 -8 -8 -8 -8 -9 -9 -8 -8 -7 -7 -8 -8 -9 -10 -9 -9 -9 -8 -8 -8 -8 -8 -8 -7 -8
-9 -9 -9 -9 -9 -8 -8 -8 -8 -8 -8 -8 -9 -9 -8 -8 -8 -8 -8 -8 -9 -10 -10 -9 -8 -9 -8 -9 -9 -9 -8 -8 -8
-9 -9 -9 -9 -9 -9 -9 -8 -8 -7 -8 -9 -9 -9 -9 -8 -8 -8 -8 -9 -9 -10 -10 -10 -9 -9 -9 -9 -8 -8 -8 -8 -8
-10 -10 -9 -9 -9 -9 -9 -9 -8 -8 -8 -8 -9 -9 -9 -9 -9 -9 -9 -9 -9 -10 -10 -10 -10 -9 -9 -8 -9 -9 -9 -9 -9
-10 -10 -10 -10 -10 -9 -9 -9 -8 -8 -8 -8 -8 -9 -9 -9 -9 -9 -9 -9 -9 -10 -10 -10 -10 -9 -9 -9 -9 -9 -9 -9 -9
-10 -10 -9 -9 -9 -10 -9 -9 -9 -9 -9 -9 -9 -9 -9 -9 -9 -10 -10 -10 -10 -10 -11 -10 -10 -10 -10 -10 -10 -9 -9 -9 -9
Height
5886 5884 5882 5882 5882 5880 5880 5881 5882 5883 5883 5883 5884 5885 5885 5887 5888 5890 5890 5890 5889 5889 5889 5890 5891 5892 5894 5896 5899 5902 5903 5904 5906
5882 5881 5879 5879 5879 5878 5878 5879 5880 5881 5881 5882 5883 5884 5885 5886 5887 5889 5887 5887 5885 5886 5888 5888 5890 5892 5893 5894 5897 5899 5902 5903 5904
5879 5877 5876 5876 5876 5876 5876 5877 5877 5879 5880 5882 5883 5883 5884 5885 5886 5887 5886 5885 5880 5882 5884 5887 5890 5891 5892 5893 5895 5897 5899 5901 5903
5876 5873 5872 5872 5874 5874 5874 5874 5875 5877 5879 5881 5881 5882 5883 5883 5884 5885 5885 5885 5882 5882 5883 5885 5887 5889 5891 5891 5893 5895 5897 5899 5901
5873 5868 5866 5868 5871 5872 5872 5873 5874 5876 5878 5880 5880 5881 5882 5882 5882 5884 5886 5886 5885 5886 5886 5887 5888 5889 5890 5891 5893 5894 5896 5897 5898
5870 5866 5864 5867 5868 5870 5871 5872 5874 5876 5877 5878 5880 5880 5881 5881 5882 5882 5884 5885 5885 5886 5886 5886 5888 5889 5889 5890 5891 5893 5894 5894 5894
5869 5867 5867 5867 5868 5870 5870 5871 5872 5874 5875 5877 5879 5879 5880 5881 5881 5883 5883 5884 5885 5885 5885 5886 5887 5888 5889 5889 5890 5892 5893 5894 5895
5868 5867 5866 5866 5867 5868 5868 5870 5870 5870 5872 5873 5876 5877 5878 5880 5881 5883 5884 5884 5883 5884 5884 5884 5885 5886 5888 5888 5888 5889 5889 5890 5891
5866 5864 5864 5864 5864 5864 5865 5866 5866 5866 5867 5869 5872 5874 5874 5874 5876 5879 5880 5881 5882 5882 5882 5883 5884 5885 5884 5885 5885 5886 5887 5887 5887
5862 5862 5862 5862 5861 5862 5862 5862 5862 5863 5863 5865 5866 5866 5867 5868 5870 5871 5874 5877 5878 5878 5879 5879 5879 5880 5881 5881 5881 5881 5881 5882 5882
5859 5859 5859 5859 5858 5858 5859 5858 5858 5859 5859 5859 5859 5860 5861 5863 5865 5867 5868 5869 5871 5873 5874 5875 5875 5874 5875 5876 5877 5877 5876 5876 5875
5855 5855 5856 5855 5855 5856 5856 5855 5855 5855 5854 5853 5851 5852 5853 5852 5855 5857 5860 5863 5864 5866 5868 5869 5870 5869 5869 5870 5870 5871 5871 5870 5869
5851 5852 5852 5852 5851 5851 5851 5851 5851 5851 5849 5847 5844 5844 5841 5843 5841 5842 5845 5849 5854 5856 5860 5861 5863 5863 5862 5863 5863 5864 5864 5863 5862
5844 5845 5845 5847 5847 5846 5845 5844 5845 5844 5843 5843 5840 5837 5835 5830 5827 5826 5829 5835 5840 5846 5850 5853 5855 5855 5855 5856 5857 5856 5856 5856 5855
5837 5838 5839 5840 5840 5841 5841 5839 5838 5837 5836 5835 5833 5831 5827 5821 5815 5814 5819 5827 5830 5836 5841 5844 5847 5847 5848 5849 5849 5848 5848 5847 5846
5829 5830 5831 5832 5833 5834 5834 5832 5831 5829 5828 5826 5824 5822 5820 5817 5811 5810 5812 5820 5822 5827 5832 5835 5838 5839 5840 5841 5841 5840 5840 5839 5837
5821 5823 5824 5824 5826 5826 5825 5825 5824 5822 5820 5818 5817 5816 5815 5813 5811 5811 5811 5813 5815 5818 5823 5828 5830 5831 5831 5832 5831 5831 5830 5828 5826
5814 5815 5816 5817 5819 5819 5819 5818 5817 5815 5813 5813 5812 5811 5810 5810 5808 5808 5809 5809 5811 5814 5817 5821 5821 5822 5823 5823 5822 5821 5819 5817 5815
5805 5806 5808 5808 5809 5810 5811 5811 5811 5810 5807 5807 5806 5806 5805 5804 5803 5804 5803 5803 5806 5807 5809 5811 5812 5812 5812 5812 5810 5808 5806 5805 5803
5795 5797 5798 5799 5800 5801 5801 5802 5803 5804 5802 5802 5800 5799 5799 5798 5797 5797 5796 5797 5798 5800 5802 5802 5802 5802 5801 5800 5798 5795 5794 5793 5792
Wind_Speed
16 14 12 11 11 10 6 5 5 7 8 9 8 8 6 5 4 3 7 7 7 10 9 10 13 15 16 15 13 12 10 9 8
15 16 14 15 11 10 7 5 6 6 8 10 10 10 8 5 4 2 6 8 11 14 13 13 17 16 16 16 15 12 10 9 10
14 16 17 18 14 11 7 5 7 8 9 11 11 10 8 6 3 2 5 11 10 11 15 16 18 17 17 16 14 13 11 10 9
16 17 19 19 16 12 9 8 9 10 10 12 12 12 10 8 8 5 6 5 7 11 11 20 21 18 15 15 12 11 11 10 9
20 22 19 22 17 15 10 9 9 9 8 10 12 12 12 11 9 9 7 3 4 6 6 11 12 13 7 8 9 10 10 10 10
17 14 4 12 16 16 10 6 6 7 9 9 9 12 14 14 12 12 10 10 7 7 6 6 8 8 8 8 9 10 10 15 13
13 8 8 8 10 11 10 9 8 8 8 9 10 14 13 14 15 14 13 11 10 9 7 6 8 9 10 10 10 11 12 13 14
11 11 15 11 10 11 12 10 10 9 8 10 11 13 15 15 16 17 17 14 12 12 11 10 10 11 12 12 13 14 15 16 16
10 12 13 13 14 9 12 12 12 13 13 13 12 17 19 16 20 21 21 20 17 14 13 14 13 14 14 15 15 15 16 17 16
11 12 11 15 14 12 9 10 14 14 17 18 19 23 23 25 25 26 25 24 22 20 19 19 18 18 18 19 20 20 20 21 21
18 11 12 16 18 17 15 15 17 20 21 23 27 30 28 26 28 28 31 30 29 26 24 23 22 21 21 22 23 24 23 23 25
17 13 16 15 17 17 20 21 21 19 22 27 31 32 36 42 41 35 36 40 34 29 27 26 27 26 24 25 25 27 27 27 27
20 20 19 19 20 24 25 20 19 23 27 29 36 31 36 36 39 39 39 43 39 31 30 28 29 28 26 27 27 28 29 30 30
23 20 21 22 22 22 20 23 26 29 28 31 32 35 40 40 44 39 37 44 38 33 31 29 31 30 29 30 30 31 33 34 35
22 24 25 25 24 24 24 28 29 30 29 30 32 34 35 39 26 37 37 45 42 36 32 31 32 30 30 32 33 35 36 36 37
26 26 26 26 26 26 28 30 28 28 29 32 32 34 30 26 27 22 31 30 42 41 32 31 32 30 31 33 35 35 36 37 38
30 29 29 29 27 28 31 31 29 30 30 29 29 25 25 17 20 27 35 38 41 40 34 31 32 32 34 36 37 38 39 39 40
30 29 29 31 29 28 27 26 27 29 27 27 23 24 22 20 14 16 30 35 38 33 30 32 31 33 37 39 39 39 40 40 39
34 33 31 29 30 31 28 26 26 26 23 23 24 26 23 22 22 20 18 34 29 26 23 28 33 35 37 39 40 39 39 39 40
36 35 37 33 32 32 33 29 26 25 24 25 27 28 25 25 28 29 27 23 23 24 28 32 35 37 39 40 41 41 42 43 45
Wind_Direction
296 275 277 268 278 263 242 241 228 220 206 191 188 191 201 207 228 264 284 294 282 245 218 230 201 181 180 184 189 190 193 195 198
294 276 268 256 261 256 239 241 224 217 201 190 188 199 212 227 244 306 308 302 273 229 214 217 203 194 187 184 186 190 202 202 200
305 280 256 257 253 249 239 231 211 206 204 201 201 205 211 219 221 295 332 311 223 221 208 204 195 191 184 184 189 194 201 203 198
318 291 258 246 246 237 222 228 227 222 221 219 206 209 214 219 227 236 272 20 102 172 198 206 198 182 190 192 194 197 203 209 215
315 302 259 238 235 230 222 228 227 221 229 223 216 217 221 229 233 238 227 228 129 133 131 129 151 163 179 169 196 205 212 215 214
306 297 244 217 217 217 218 225 253 251 245 240 244 240 237 245 237 233 230 222 200 172 167 164 183 202 207 205 198 198 205 204 210
298 282 293 244 240 236 234 225 236 258 275 279 273 268 253 253 244 247 244 239 228 232 230 218 216 215 218 220 228 229 235 246 251
296 269 275 278 277 246 244 250 253 255 260 275 275 268 261 263 266 256 252 249 255 253 248 240 236 241 243 239 237 243 249 253 255
272 268 251 259 265 244 262 256 264 258 257 259 260 266 268 262 268 257 258 257 250 246 246 257 257 256 252 251 248 247 251 258 263
255 248 262 268 271 276 273 263 263 261 263 264 258 256 259 267 274 235 245 249 246 248 252 251 252 255 261 263 263 261 262 262 261
250 243 267 271 269 251 258 270 271 275 275 273 273 282 258 265 264 249 241 242 247 248 250 252 254 254 258 261 264 266 268 268 269
235 236 263 275 269 262 272 277 280 279 280 285 280 279 273 274 270 259 250 244 242 245 248 250 254 257 258 263 266 267 268 268 268
240 258 255 265 266 270 277 265 267 286 289 283 284 291 290 299 291 267 268 243 231 237 248 251 255 256 256 261 263 267 268 267 267
253 270 257 262 262 267 266 272 280 284 281 283 287 294 299 294 289 272 253 227 224 229 243 250 254 255 259 264 267 268 268 268 268
252 255 259 262 263 262 269 279 286 286 278 281 279 290 298 299 258 253 239 226 223 224 233 246 253 259 264 267 270 273 273 273 274
249 253 254 256 259 264 276 280 289 294 286 282 280 289 288 290 244 252 213 214 225 226 228 242 256 264 268 274 277 277 277 281 283
251 251 253 259 262 270 275 275 281 291 296 284 284 286 283 276 255 227 214 219 224 227 225 247 263 267 273 277 278 279 280 281 282
255 257 257 261 262 267 275 275 283 287 281 277 272 278 274 278 248 262 243 241 243 233 249 261 267 272 274 274 277 279 281 281 281
253 255 255 261 264 273 275 276 279 269 277 269 270 274 274 276 278 275 282 240 247 248 259 267 269 271 275 278 280 282 284 286 287
252 260 259 262 265 273 275 274 266 267 264 263 267 269 268 270 277 286 287 284 272 261 267 271 272 274 278 282 285 286 287 287 287